When you browse on this site, cookies collect data to enhance your experience and personalize the content and advertising you see.
Visit our Privacy Policy to learn more. By continuing to use the site, you agree to this use of cookies and data.
  • In Switzerland
  • List of Countries
  • For 7 days
  • Water Temperature
  • Weather Map
  • Weather Widgets
  • user-avatar
    Login

    Hourly Weather Tucson

    Today, 8 December, Sunday

    Time Temperature Precipitation Wind Pressure Humidity
    00:00 +19°C° 0 mm 1 mps 698 mmHg 59%
    01:00 +18°C° 0 mm 1 mps 697 mmHg 60%
    02:00 +16°C° 0 mm 0 mps 697 mmHg 62%
    03:00 +16°C° 0 mm 0 mps 697 mmHg 60%
    04:00 +16°C° 0 mm 0 mps 697 mmHg 59%
    05:00 +16°C° 0 mm 0 mps 697 mmHg 57%
    06:00 +18°C° 0 mm 1 mps 697 mmHg 57%
    07:00 +18°C° 0 mm 1 mps 697 mmHg 57%
    08:00 +18°C° 0 mm 1 mps 697 mmHg 56%
    09:00 +19°C° 0 mm 1 mps 697 mmHg 53%
    10:00 +20°C° 0 mm 1 mps 697 mmHg 49%
    11:00 +21°C° 0 mm 1 mps 697 mmHg 46%
    12:00 +20°C° 0 mm 2 mps 697 mmHg 44%
    13:00 +21°C° 0 mm 2 mps 696 mmHg 42%
    14:00 +21°C° 0 mm 3 mps 696 mmHg 40%
    15:00 +21°C° 0 mm 4 mps 696 mmHg 43%
    16:00 +21°C° 0 mm 4 mps 695 mmHg 46%
    17:00 +20°C° 0 mm 5 mps 695 mmHg 48%
    18:00 +19°C° 0.1 mm 4 mps 695 mmHg 52%
    19:00 +19°C° 0.1 mm 4 mps 695 mmHg 56%
    20:00 +18°C° 0.1 mm 3 mps 695 mmHg 60%
    21:00 +17°C° 0.2 mm 3 mps 695 mmHg 64%
    22:00 +17°C° 0.2 mm 2 mps 695 mmHg 68%
    23:00 +16°C° 0.2 mm 2 mps 695 mmHg 72%

    Tomorrow, 9 December, Monday

    Time Temperature Precipitation Wind Pressure Humidity
    00:00 +16°C° 0.7 mm 2 mps 694 mmHg 73%
    01:00 +16°C° 0.7 mm 2 mps 694 mmHg 74%
    02:00 +16°C° 0.7 mm 2 mps 694 mmHg 75%
    03:00 +15°C° 1.8 mm 2 mps 694 mmHg 77%
    04:00 +14°C° 1.8 mm 3 mps 694 mmHg 79%
    05:00 +13°C° 1.8 mm 3 mps 693 mmHg 81%
    06:00 +13°C° 1.3 mm 3 mps 694 mmHg 81%
    07:00 +13°C° 1.3 mm 3 mps 694 mmHg 81%
    08:00 +13°C° 1.3 mm 3 mps 694 mmHg 81%
    09:00 +12°C° 1.5 mm 3 mps 694 mmHg 80%
    10:00 +12°C° 1.5 mm 4 mps 694 mmHg 79%
    11:00 +12°C° 1.5 mm 4 mps 694 mmHg 78%
    12:00 +12°C° 0.9 mm 4 mps 693 mmHg 72%
    13:00 +12°C° 0.9 mm 4 mps 693 mmHg 65%
    14:00 +12°C° 0.9 mm 4 mps 693 mmHg 59%
    15:00 +12°C° 0.1 mm 3 mps 693 mmHg 60%
    16:00 +13°C° 0.1 mm 2 mps 694 mmHg 60%
    17:00 +13°C° 0.1 mm 2 mps 694 mmHg 61%
    18:00 +13°C° 0 mm 1 mps 695 mmHg 64%
    19:00 +12°C° 0 mm 1 mps 695 mmHg 66%
    20:00 +12°C° 0 mm 1 mps 696 mmHg 69%
    21:00 +12°C° 0 mm 1 mps 696 mmHg 70%
    22:00 +12°C° 0 mm 1 mps 697 mmHg 71%
    23:00 +10°C° 0 mm 0 mps 697 mmHg 72%

    Day after tomorrow, 10 December, Tuesday

    Time Temperature Precipitation Wind Pressure Humidity
    00:00 +10°C° 0 mm 0 mps 697 mmHg 73%
    01:00 +10°C° 0 mm 0 mps 697 mmHg 73%
    02:00 +9°C° 0 mm 0 mps 697 mmHg 74%
    03:00 +9°C° 0 mm 0 mps 697 mmHg 74%
    04:00 +9°C° 0 mm 0 mps 698 mmHg 75%
    05:00 +10°C° 0 mm 1 mps 698 mmHg 75%
    06:00 +10°C° 0 mm 1 mps 698 mmHg 74%
    07:00 +10°C° 0 mm 1 mps 699 mmHg 74%
    08:00 +11°C° 0 mm 1 mps 700 mmHg 73%
    09:00 +12°C° 0 mm 1 mps 700 mmHg 65%
    10:00 +14°C° 0 mm 1 mps 700 mmHg 57%
    11:00 +15°C° 0 mm 1 mps 701 mmHg 50%
    12:00 +16°C° 0 mm 1 mps 700 mmHg 45%
    13:00 +18°C° 0 mm 1 mps 700 mmHg 41%
    14:00 +18°C° 0 mm 1 mps 700 mmHg 37%
    15:00 +18°C° 0 mm 1 mps 700 mmHg 39%
    16:00 +16°C° 0 mm 1 mps 699 mmHg 42%
    17:00 +16°C° 0 mm 1 mps 699 mmHg 45%
    18:00 +15°C° 0 mm 1 mps 699 mmHg 47%
    19:00 +14°C° 0 mm 1 mps 699 mmHg 49%
    20:00 +14°C° 0 mm 1 mps 699 mmHg 52%
    21:00 +13°C° 0 mm 1 mps 699 mmHg 53%
    22:00 +13°C° 0 mm 1 mps 699 mmHg 54%
    23:00 +12°C° 0 mm 1 mps 699 mmHg 55%

    11 December, Wednesday

    Time Temperature Precipitation Wind Pressure Humidity
    00:00 +12°C° 0 mm 1 mps 699 mmHg 55%
    01:00 +12°C° 0 mm 1 mps 699 mmHg 54%
    02:00 +12°C° 0 mm 2 mps 698 mmHg 54%
    03:00 +12°C° 0 mm 2 mps 698 mmHg 54%
    04:00 +10°C° 0 mm 2 mps 698 mmHg 53%
    05:00 +10°C° 0 mm 2 mps 698 mmHg 53%
    06:00 +10°C° 0 mm 2 mps 698 mmHg 53%
    07:00 +12°C° 0 mm 2 mps 698 mmHg 53%
    08:00 +12°C° 0 mm 2 mps 698 mmHg 53%
    09:00 +13°C° 0 mm 2 mps 698 mmHg 48%
    10:00 +15°C° 0 mm 2 mps 698 mmHg 42%
    11:00 +16°C° 0 mm 2 mps 699 mmHg 37%
    12:00 +17°C° 0 mm 2 mps 698 mmHg 34%
    13:00 +19°C° 0 mm 1 mps 698 mmHg 30%
    14:00 +20°C° 0 mm 1 mps 697 mmHg 27%
    15:00 +19°C° 0 mm 1 mps 697 mmHg 30%
    16:00 +18°C° 0 mm 2 mps 697 mmHg 33%
    17:00 +17°C° 0 mm 2 mps 696 mmHg 37%
    18:00 +16°C° 0 mm 2 mps 696 mmHg 41%
    19:00 +15°C° 0 mm 1 mps 696 mmHg 45%
    20:00 +14°C° 0 mm 1 mps 696 mmHg 49%
    21:00 +13°C° 0 mm 1 mps 696 mmHg 50%
    22:00 +13°C° 0 mm 1 mps 696 mmHg 51%
    23:00 +12°C° 0 mm 1 mps 697 mmHg 53%

    12 December, Thursday

    Time Temperature Precipitation Wind Pressure Humidity
    00:00 +12°C° 0 mm 1 mps 696 mmHg 54%
    01:00 +10°C° 0 mm 0 mps 696 mmHg 56%
    02:00 +10°C° 0 mm 0 mps 696 mmHg 57%
    03:00 +10°C° 0 mm 0 mps 696 mmHg 57%
    04:00 +10°C° 0 mm 0 mps 696 mmHg 57%
    05:00 +9°C° 0 mm 0 mps 696 mmHg 57%
    06:00 +10°C° 0 mm 0 mps 697 mmHg 57%
    07:00 +11°C° 0 mm 1 mps 698 mmHg 56%
    08:00 +11°C° 0 mm 1 mps 698 mmHg 56%
    09:00 +13°C° 0 mm 1 mps 699 mmHg 49%
    10:00 +15°C° 0 mm 1 mps 699 mmHg 42%
    11:00 +16°C° 0 mm 1 mps 700 mmHg 35%
    12:00 +18°C° 0 mm 1 mps 699 mmHg 33%
    13:00 +19°C° 0 mm 1 mps 699 mmHg 31%
    14:00 +20°C° 0 mm 1 mps 699 mmHg 29%
    15:00 +19°C° 0 mm 1 mps 699 mmHg 32%
    16:00 +19°C° 0 mm 1 mps 699 mmHg 36%
    17:00 +17°C° 0 mm 2 mps 699 mmHg 40%
    18:00 +16°C° 0 mm 1 mps 699 mmHg 42%
    19:00 +15°C° 0 mm 1 mps 699 mmHg 44%
    20:00 +14°C° 0 mm 1 mps 699 mmHg 46%
    21:00 +14°C° 0 mm 1 mps 699 mmHg 47%
    22:00 +13°C° 0 mm 1 mps 699 mmHg 48%
    23:00 +13°C° 0 mm 1 mps 699 mmHg 49%

    13 December, Friday

    Time Temperature Precipitation Wind Pressure Humidity
    00:00 +13°C° 0 mm 1 mps 699 mmHg 49%
    01:00 +12°C° 0 mm 1 mps 699 mmHg 49%
    02:00 +12°C° 0 mm 1 mps 698 mmHg 49%
    03:00 +11°C° 0 mm 0 mps 698 mmHg 49%
    04:00 +11°C° 0 mm 0 mps 698 mmHg 49%
    05:00 +10°C° 0 mm 0 mps 698 mmHg 50%
    06:00 +11°C° 0 mm 0 mps 698 mmHg 49%
    07:00 +11°C° 0 mm 0 mps 698 mmHg 49%
    08:00 +12°C° 0 mm 1 mps 699 mmHg 49%
    09:00 +13°C° 0 mm 0 mps 699 mmHg 43%
    10:00 +15°C° 0 mm 0 mps 699 mmHg 36%
    11:00 +17°C° 0 mm 0 mps 700 mmHg 29%
    12:00 +20°C° 0 mm 1 mps 699 mmHg 28%
    13:00 +20°C° 0 mm 1 mps 698 mmHg 27%
    14:00 +20°C° 0 mm 2 mps 698 mmHg 26%
    15:00 +19°C° 0 mm 2 mps 698 mmHg 30%
    16:00 +19°C° 0 mm 2 mps 698 mmHg 33%
    17:00 +18°C° 0 mm 2 mps 697 mmHg 37%
    18:00 +18°C° 0 mm 1 mps 698 mmHg 40%
    19:00 +16°C° 0 mm 1 mps 698 mmHg 43%
    20:00 +14°C° 0 mm 0 mps 698 mmHg 46%
    21:00 +13°C° 0 mm 0 mps 698 mmHg 46%
    22:00 +13°C° 0 mm 0 mps 698 mmHg 46%
    23:00 +13°C° 0 mm 0 mps 698 mmHg 47%
    Show more